This is the latest recevied weather packets stored in our database for station/object EA8BQU-10. If no packets are shown the sender has not sent any weather packets the latest 10 day(s).
| Time | Temp. | Humidity | Pressure | Rain* | Wind** | Luminosity | Snow |
|---|---|---|---|---|---|---|---|
| 1777633242 | 20.56° C | 99% | 1020.2 hPa | - | - | - | - |
| 1777632342 | 20.56° C | 100% | 1020.2 hPa | - | - | - | - |
| 1777631442 | 20° C | 100% | 1020.2 hPa | - | - | - | - |
| 1777630542 | 20.56° C | 100% | 1020.3 hPa | - | - | - | - |
| 1777629642 | 20.56° C | 100% | 1020.1 hPa | - | - | - | - |
| 1777628741 | 20° C | 100% | 1020.3 hPa | - | - | - | - |
| 1777627841 | 20° C | 99% | 1020.4 hPa | - | - | - | - |
| 1777626941 | 20° C | 100% | 1020.4 hPa | - | - | - | - |
| 1777626041 | 20° C | 100% | 1020.3 hPa | - | - | - | - |
| 1777625141 | 20° C | 100% | 1020.4 hPa | - | - | - | - |
| 1777624240 | 20° C | 100% | 1020.3 hPa | - | - | - | - |
| 1777623340 | 20° C | 100% | 1020.2 hPa | - | - | - | - |
| 1777622440 | 19.44° C | 100% | 1019.9 hPa | - | - | - | - |
| 1777621540 | 19.44° C | 100% | 1019.9 hPa | - | - | - | - |
| 1777620640 | 18.89° C | 100% | 1019.6 hPa | - | - | - | - |
| 1777619740 | 18.89° C | 100% | 1019.3 hPa | - | - | - | - |
| 1777618840 | 18.89° C | 100% | 1018.9 hPa | - | - | - | - |
| 1777617939 | 18.89° C | 100% | 1018.5 hPa | - | - | - | - |
| 1777617039 | 18.89° C | 100% | 1018.7 hPa | - | - | - | - |
| 1777616139 | 18.89° C | 100% | 1018.6 hPa | - | - | - | - |
| 1777615239 | 18.33° C | 100% | 1018.6 hPa | - | - | - | - |
| 1777614338 | 18.89° C | 100% | 1018.5 hPa | - | - | - | - |
| 1777613442 | 18.89° C | 100% | 1018.4 hPa | - | - | - | - |
| 1777612542 | 18.89° C | 100% | 1018.4 hPa | - | - | - | - |
| 1777611642 | 18.89° C | 100% | 1018.6 hPa | - | - | - | - |
* Rain since midnight (hover to see other rain measurements)
** Current wind speed in m/s (hover to see current wind gust speed)